Theta_e
311 312 312 312 313 313 312 313 313 314 314 315 316 316 316 316 315 313 313 313 314 314 315 316 316 316 316 316 317 317 317 318 318 319 319 320 320 321 321 321 320 319
309 309 309 310 312 311 310 310 310 310 311 312 312 312 312 311 310 309 308 309 310 310 311 313 314 314 315 315 315 315 315 316 316 317 317 317 318 318 318 318 318 318
308 308 308 308 309 309 308 308 308 308 308 308 308 308 308 308 307 307 307 307 307 308 308 309 310 311 312 313 313 313 314 314 314 315 315 315 316 316 316 316 316 316
308 308 308 308 308 308 307 307 307 306 306 306 306 306 306 306 306 306 307 306 306 306 306 306 307 308 309 309 311 312 312 312 312 312 313 313 313 313 314 314 314 314
307 307 307 307 307 307 307 306 306 306 306 306 306 306 305 305 306 306 306 306 306 306 305 305 306 306 306 307 308 309 309 310 309 310 310 310 310 311 311 311 311 311
307 307 307 307 307 306 306 306 306 305 306 305 305 305 305 305 305 305 305 305 305 305 305 305 305 304 304 305 305 306 307 307 307 307 307 307 307 308 308 308 309 309
306 306 306 306 305 306 306 305 305 305 305 305 305 304 304 304 304 304 304 304 304 304 304 304 304 304 303 303 303 304 304 305 305 304 304 305 305 305 305 305 306 306
305 305 305 305 305 305 305 305 305 305 305 305 304 304 304 304 304 304 303 303 303 303 303 303 303 302 302 302 302 302 302 302 302 302 302 303 303 303 303 303 304 304
305 305 305 304 304 304 304 304 304 304 304 303 303 303 303 303 303 303 303 303 303 302 302 302 302 302 301 301 301 301 301 301 300 301 301 301 302 302 302 302 302 303
304 303 303 302 302 302 302 302 301 301 301 301 301 301 301 302 301 301 301 302 302 302 302 301 301 301 301 301 300 300 300 300 300 300 300 300 300 301 301 301 301 301
301 301 300 300 300 300 300 300 300 299 299 299 299 299 299 299 299 300 300 300 300 300 300 300 300 300 300 300 300 300 299 299 299 299 299 299 299 300 300 299 300 300
300 299 299 299 298 298 298 298 298 298 297 297 297 297 297 298 298 298 298 298 298 298 299 299 299 299 299 299 299 299 299 298 298 298 298 298 298 298 298 298 298 299
298 298 297 297 296 296 296 296 295 295 295 295 295 296 296 296 296 296 297 297 297 297 297 298 298 298 298 298 298 297 297 297 297 297 297 297 297 297 297 297 297 298
296 295 295 295 294 294 294 294 294 293 294 294 294 294 294 295 295 295 295 295 295 296 296 296 297 297 297 297 297 297 296 296 296 296 296 296 296 296 296 296 296 296
294 294 293 293 293 293 293 293 293 292 292 292 292 292 293 293 293 293 293 294 294 294 295 295 295 296 296 297 297 296 296 295 295 295 295 295 295 295 295 295 295 295
293 293 293 292 292 292 292 292 292 292 292 292 292 292 292 292 292 292 292 293 293 293 293 294 294 294 295 296 297 297 296 295 295 294 294 294 295 295 295 295 295 295
292 292 292 292 291 291 291 291 291 291 291 291 291 291 291 291 291 292 292 292 292 292 292 293 293 293 293 294 295 296 296 296 295 294 294 294 294 294 295 295 294 294
291 291 291 291 291 291 291 291 291 291 291 291 291 291 291 291 291 291 291 291 291 291 292 292 292 292 292 292 293 295 296 296 295 294 294 294 294 294 294 294 294 294
291 290 290 290 290 290 290 290 290 290 290 290 290 290 290 290 290 290 290 290 290 291 291 291 291 291 291 292 292 293 294 295 294 294 294 294 294 294 294 294 294 294
290 290 290 290 290 290 290 290 290 290 289 290 290 290 290 290 290 290 290 290 290 290 290 290 290 290 291 291 291 292 293 294 294 294 293 293 293 293 293 293 293 293
290 290 289 289 289 289 289 289 289 289 289 289 289 289 289 289 289 289 289 289 289 289 289 289 290 290 290 290 291 291 292 293 294 293 293 292 292 292 293 293 293 293
289 289 289 289 289 288 289 289 289 289 289 289 289 289 289 289 289 289 289 289 289 289 289 289 289 289 289 289 290 290 291 292 293 292 291 291 291 292 292 292 292 292
288 288 288 288 288 288 288 289 289 289 289 289 289 289 289 289 289 289 289 289 289 289 289 289 289 289 289 289 289 289 290 291 291 291 290 290 290 291 291 291 291 292
287 287 287 288 288 288 289 289 289 289 289 289 289 289 289 289 289 290 290 290 289 289 289 289 289 290 290 289 289 289 289 289 290 289 289 289 290 290 290 291 291 291
287 288 288 288 289 289 289 289 289 289 289 289 289 289 289 289 289 289 289 289 289 290 290 289 290 290 290 290 289 289 289 289 289 289 289 289 290 289 290 290 290 291
288 289 289 289 289 289 289 289 289 289 288 288 288 288 288 288 288 288 288 289 288 289 289 289 289 290 290 290 289 288 289 289 289 288 288 288 289 289 289 289 289 290
Wind_Speed
3 3 2 1 1 2 3 3 4 5 5 6 7 7 8 8 10 11 11 12 12 12 12 12 13 14 14 15 16 16 17 19 19 20 21 23 25 26 27 28 28 29
5 4 3 3 2 1 2 3 3 4 5 6 7 8 9 10 11 12 12 12 13 13 13 12 12 13 13 14 15 15 16 18 18 19 20 22 24 26 28 28 28 28
7 6 5 5 3 2 2 3 4 5 5 6 7 8 9 10 11 12 12 12 13 13 13 13 13 13 13 13 14 15 16 17 18 19 20 21 23 25 28 29 30 30
10 9 9 8 7 6 5 5 5 5 5 5 6 7 8 9 10 10 11 12 12 13 13 14 14 14 14 14 13 14 15 17 19 19 20 22 22 24 26 26 27 29
12 11 11 10 9 9 8 8 7 7 7 7 7 7 8 9 9 10 11 11 12 13 13 14 14 14 14 14 13 14 14 16 18 18 19 22 23 23 25 26 27 29
13 13 13 13 12 12 12 11 11 11 10 10 10 10 10 10 11 12 12 12 13 13 14 14 15 15 15 14 14 14 15 16 17 18 19 21 23 23 25 26 27 28
15 15 15 15 14 14 14 13 13 13 13 12 13 13 13 13 14 14 14 14 14 14 15 15 15 15 15 15 16 16 16 17 18 19 19 20 22 23 24 24 25 27
16 16 16 16 15 15 14 14 14 14 13 14 14 14 14 15 15 16 16 16 16 16 17 17 17 17 17 17 17 18 18 19 19 19 19 21 22 23 24 23 24 27
16 16 16 16 16 15 14 14 14 13 13 14 14 14 15 15 15 15 16 16 17 17 18 18 19 19 19 20 19 20 21 21 22 21 20 21 22 23 24 24 24 27
16 16 15 16 16 15 14 13 13 13 13 13 14 14 14 14 15 15 15 16 17 17 17 18 18 19 20 20 20 21 21 22 22 22 22 22 23 23 24 24 25 27
16 16 15 16 16 15 14 14 14 14 14 15 15 15 15 15 16 16 16 16 16 16 16 17 17 18 19 20 20 21 21 21 22 22 23 23 25 25 25 26 27 28
16 16 16 16 16 16 16 16 16 16 17 17 17 17 18 18 18 18 17 17 17 17 17 17 17 18 18 19 20 21 21 22 23 23 24 26 27 27 27 28 28 30
16 16 17 17 18 18 18 18 19 20 20 20 20 21 21 21 21 21 21 21 20 20 20 20 20 20 20 20 21 21 22 22 23 24 26 27 29 29 28 28 30 31
17 17 18 18 19 19 20 20 20 21 21 21 22 22 22 22 22 23 23 23 23 23 23 23 23 23 23 22 22 23 23 24 25 25 26 28 29 29 29 29 31 32
18 18 18 18 19 19 19 20 20 21 21 22 22 22 23 23 23 24 24 25 25 25 24 24 25 26 24 24 25 26 26 27 27 26 27 28 29 30 30 30 30 32
17 17 17 17 18 19 19 20 21 22 23 23 24 24 24 24 25 25 25 25 26 26 26 26 27 27 27 27 28 28 29 29 29 29 28 28 29 30 31 32 31 32
16 16 17 18 19 20 20 21 22 23 24 25 25 26 25 26 27 27 26 26 26 26 26 26 27 29 29 29 29 29 30 30 31 32 31 29 30 31 32 33 33 33
16 17 18 18 20 21 22 23 24 25 26 27 27 27 28 29 29 29 29 29 29 29 29 29 29 31 31 31 31 30 30 31 32 33 33 32 31 31 32 34 34 35
17 17 18 19 21 22 23 25 26 27 28 29 29 29 30 32 32 32 32 32 31 32 33 33 34 35 34 34 34 33 31 31 33 33 33 33 33 32 33 34 34 35
17 18 19 20 21 23 24 25 27 28 29 30 31 31 32 33 33 34 34 34 34 35 36 38 38 38 39 38 37 36 34 33 34 35 35 35 34 33 33 34 34 33
18 18 19 21 22 23 25 26 28 29 31 31 31 32 33 34 35 35 36 36 37 37 38 41 42 41 41 41 39 38 37 35 35 35 35 35 35 34 33 34 34 32
17 19 20 22 24 25 27 28 29 31 31 31 32 34 35 36 36 37 38 39 39 39 39 42 46 44 42 42 42 40 37 37 35 34 34 35 36 35 34 33 33 32
17 19 21 23 25 27 28 29 30 32 32 32 33 36 37 38 39 40 40 39 40 40 39 41 47 48 43 42 42 39 35 35 35 33 34 35 35 35 33 32 32 32
17 19 22 23 25 26 28 29 30 31 32 32 34 36 38 39 39 41 42 41 41 42 42 42 46 50 47 43 41 38 33 32 33 33 33 34 34 34 33 32 33 33
18 20 21 23 25 26 27 28 29 30 32 33 34 36 38 39 39 41 43 44 44 44 44 44 46 49 49 46 42 38 34 31 31 31 32 33 34 34 35 35 35 35
18 19 21 22 24 25 26 27 29 30 31 33 35 36 37 38 39 39 42 45 45 44 44 44 44 46 48 47 42 38 35 32 30 31 32 32 32 33 34 35 36 36
Wind_Direction
146 150 163 160 235 279 287 287 286 289 290 290 289 290 290 286 284 285 284 281 280 280 280 280 281 281 281 279 278 279 277 276 277 278 278 277 276 275 273 270 267 265
131 132 134 127 126 318 321 318 318 316 313 307 302 301 299 297 300 304 305 301 296 293 289 284 282 282 283 283 282 280 279 278 277 277 277 276 275 274 273 274 275 273
113 108 105 104 97 70 38 17 9 0 347 339 328 321 317 318 324 328 327 324 319 315 310 301 293 288 285 286 285 283 282 281 281 280 280 278 277 276 275 275 275 275
105 102 100 97 91 84 74 61 49 33 17 7 353 342 340 339 342 344 341 339 335 330 326 320 313 304 298 294 289 287 284 282 282 282 281 280 279 279 279 278 277 276
105 101 99 96 92 89 81 72 63 52 43 33 22 11 5 360 359 359 356 352 348 343 340 335 330 324 316 308 298 292 289 287 285 284 282 281 280 279 278 278 278 278
104 101 99 94 89 85 79 71 65 58 51 45 39 31 25 20 18 15 10 6 1 357 353 348 344 338 331 323 314 304 297 293 292 289 285 284 283 283 282 280 280 280
98 95 93 89 83 79 73 66 61 54 49 44 40 35 30 27 25 22 17 14 10 6 1 356 352 347 340 330 321 313 306 299 296 294 291 289 288 288 286 285 283 281
93 89 86 82 77 71 66 60 55 49 43 40 36 32 28 26 23 20 17 15 11 7 5 0 355 350 345 338 330 323 318 312 307 303 297 295 293 293 292 291 289 286
87 83 80 76 72 67 63 58 53 48 42 37 34 29 26 23 20 17 13 11 9 6 3 359 356 352 347 342 336 331 327 323 319 313 306 301 297 296 296 295 293 290
86 82 78 75 71 66 62 58 53 48 41 37 33 28 24 19 16 14 10 7 5 2 360 356 353 349 346 343 338 332 327 323 320 316 311 308 302 299 298 297 295 292
86 81 75 71 68 63 58 53 48 43 37 33 30 25 21 17 13 11 7 5 1 358 355 353 350 346 343 341 337 333 327 321 317 313 309 307 304 300 298 297 295 293
81 74 68 63 59 54 49 44 39 34 30 26 22 19 16 13 10 7 5 2 359 357 354 351 350 347 343 341 338 334 328 322 318 313 309 307 306 302 298 297 295 294
72 64 59 52 47 43 37 33 29 24 21 17 14 12 9 6 3 1 359 357 355 353 351 349 348 348 345 343 340 335 328 322 317 313 309 308 308 305 300 298 296 296
63 56 51 44 39 34 29 24 20 16 13 10 7 4 2 359 356 354 352 351 350 347 345 343 342 343 342 340 337 333 329 324 319 315 310 307 307 306 303 300 298 297
56 49 44 38 32 26 21 16 12 9 5 2 360 357 355 353 351 349 347 346 344 342 340 339 338 338 337 334 333 332 329 326 321 316 312 308 306 306 304 302 300 298
50 42 35 30 24 18 14 9 6 3 359 357 355 353 351 350 348 347 346 342 340 338 336 335 334 334 334 331 331 330 328 325 322 317 313 310 306 305 305 305 303 301
42 34 27 22 17 13 9 6 3 360 357 355 354 352 350 349 348 346 344 341 338 335 333 330 329 331 332 330 329 329 327 324 320 317 313 309 306 303 303 304 303 302
34 28 23 17 13 9 6 4 1 358 357 354 352 351 348 347 346 343 341 340 336 333 330 328 327 329 330 329 327 327 325 322 318 315 311 307 305 302 300 302 302 302
29 23 19 14 10 6 3 2 359 356 354 351 348 347 345 343 342 340 338 337 334 331 329 326 327 328 329 327 326 325 325 321 316 313 309 304 302 300 299 299 300 301
23 18 14 9 5 3 0 358 355 352 350 347 344 343 342 340 338 336 334 333 331 329 327 325 325 326 326 325 324 324 324 320 315 311 307 303 300 298 297 297 297 297
18 13 9 5 1 359 357 354 351 348 346 344 342 340 338 337 335 333 331 330 329 327 325 323 322 323 324 322 321 321 321 318 314 310 306 301 299 297 295 295 296 294
12 8 5 1 359 356 353 350 348 345 343 342 339 337 336 335 333 331 329 328 327 326 323 321 321 321 321 320 319 319 318 316 312 308 304 300 298 297 295 294 294 292
8 4 1 358 355 352 349 347 345 343 342 340 338 336 335 334 332 330 329 327 325 325 323 320 320 321 320 319 318 317 315 314 310 305 302 299 297 297 296 294 294 292
4 1 358 354 351 348 346 344 343 341 340 339 337 335 333 332 331 329 327 326 324 323 322 320 319 320 320 318 318 316 313 309 307 304 300 299 298 298 299 297 296 295
360 356 352 348 346 345 343 342 341 339 338 336 335 333 331 330 329 327 325 324 323 322 321 319 318 318 319 318 317 317 313 307 303 300 296 297 298 299 300 300 297 297
353 350 347 344 343 341 340 340 339 337 336 334 333 332 330 328 327 325 323 322 321 320 319 318 316 316 317 317 316 315 314 307 300 295 292 295 298 298 299 299 298 298